Torna al catalogo

ATLAS 5 CENTAUR DEB

LostHEO
NORAD 49344·DEBRIS·🇺🇸 United States

Lanciato Oct 17, 2018 da Cape Canaveral Space Force Station

Loading…

Prossimi Passaggi (prossime 24 ore)

TLE

ObsoletoSource: Space-Track

Epoca: Jul 14, 2024, 06:23 UTC

1 49344U 18079EV  24196.26639696 -.00000067  00000-0  00000+0 0  9991
2 49344  11.4147 115.1449 4627890 153.1316 241.0054  1.73120665 18180

Traccia ATLAS 5 CENTAUR DEB in tempo reale con AllMySat

Download on the App Store